"2009-03-29 00:00:00",752018,2.522,115.3,7.623,1.197,4.152,102.3524,5.303,6.48,23.46,0,110.2,13.34,6.07,77.3
"2009-03-29 00:00:30",752019,2.164,116.7,3.07,0.894,2.166,102.3507,5.299,6.326,23.19,0,110.2,13.34,6.07,78.7
"2009-03-29 00:01:00",752020,1.738,120.3,2.058,0.029,1.607,102.3535,5.306,6.352,23.12,0,110.2,13.37,6.08,82.3
"2009-03-29 00:01:30",752021,1.73,127.2,2.74,0.034,1.813,102.368,5.343,6.382,23.08,0,110.2,13.37,6.11,89.2
"2009-03-29 00:02:00",752022,2.938,140.3,7.051,1.292,4.666,102.3742,5.359,6.512,23.17,0,110.2,13.34,6.13,102.3
"2009-03-29 00:02:30",752023,2.599,147.6,7.675,1.283,4.964,102.3802,5.374,6.589,23.29,0,110.2,13.34,6.14,109.6
"2009-03-29 00:03:00",752024,2.947,154.4,5.694,1.204,5.891,102.3878,5.394,6.649,23.75,0,110.2,13.34,6.16,116.4
"2009-03-29 00:03:30",752025,1.358,148.2,5.032,0.943,2.742,102.3884,5.395,6.409,23.96,0,110.2,13.34,6.17,110.2
"2009-03-29 00:04:00",752026,1.644,161.3,10.33,1.196,3.941,102.3932,5.407,6.594,24.47,0,110.2,13.34,6.18,123.3
"2009-03-29 00:04:30",752027,1.683,175.3,4.254,0.876,2.429,102.393,5.407,6.411,24.69,0,110.2,13.34,6.18,137.3
"2009-03-29 00:05:00",752028,1.374,177.8,3.001,0.079,2.246,102.3984,5.421,6.428,25.26,0,110.2,13.37,6.19,139.8
"2009-03-29 00:05:30",752029,1.2,181.7,1.681,0.05,2.205,102.3975,5.418,6.419,25.44,0,110.2,13.37,6.19,143.7
"2009-03-29 00:06:00",752030,1.153,182.4,4.918,0.116,2.121,102.3979,5.419,6.429,25.41,0,110.2,13.38,6.19,144.4
"2009-03-29 00:06:30",752031,1.689,181,5.089,1.208,4.093,102.3755,5.362,6.552,25.09,0,110.2,13.34,6.13,143.0
"2009-03-29 00:07:00",752032,3.507,185.7,5.26,0.61,7.615,102.3386,5.268,6.708,24.96,0,110.2,13.34,6.04,147.7
"2009-03-29 00:07:30",752033,3.22,178.2,9.07,1.167,5.219,102.2857,5.133,6.527,24.27,0,110.2,13.34,5.90,140.2
"2009-03-29 00:08:00",752034,1.81,158.4,4.682,0.481,2.041,102.2437,5.026,6.259,23.57,0,110.2,13.34,5.80,120.4
"2009-03-29 00:08:30",752035,2.677,145.7,10.77,1.204,2.76,102.2234,4.974,6.19,23.5,0,110.2,13.34,5.74,107.7
"2009-03-29 00:09:00",752036,3.135,140.9,6.638,1.281,3.527,102.2231,4.973,6.275,23.77,0,110.2,13.34,5.74,102.9
"2009-03-29 00:09:30",752037,2.085,133.9,0.998,0.068,1.772,102.2269,4.983,6.081,23.74,0,110.2,13.37,5.75,95.9
"2009-03-29 00:10:00",752038,3.171,139,6.461,1.267,3.607,102.2269,4.983,6.081,23.84,0,110.2,13.34,5.75,101.0
"2009-03-29 00:10:30",752039,4.121,144.5,6.353,1.223,6.177,102.2303,4.991,6.324,24.19,0,110.2,13.34,5.76,106.5
"2009-03-29 00:11:00",752040,4.027,144.1,6.212,1.17,5.87,102.2512,5.045,6.306,24.38,0,110.2,13.34,5.81,106.1
"2009-03-29 00:11:30",752041,3.268,140,6.534,1.219,4.172,102.2637,5.077,6.225,24.47,0,110.2,13.34,5.85,102.0
"2009-03-29 00:12:00",752042,3.102,139.3,5.98,1.244,4.247,102.2653,5.081,6.263,24.72,0,110.2,13.34,5.85,101.3
"2009-03-29 00:12:30",752043,2.338,134.6,2.463,0.663,1.961,102.2673,5.086,6.182,24.72,0,110.2,13.34,5.86,96.6
"2009-03-29 00:13:00",752044,3.212,138.5,6.743,1.27,4.366,102.2673,5.086,6.16,24.65,0,110.2,13.34,5.86,100.5
"2009-03-29 00:13:30",752045,2.714,139.3,7.523,1.137,3.808,102.2673,5.086,6.264,24.62,0,110.2,13.34,5.86,101.3
"2009-03-29 00:14:00",752046,3.648,145.9,6.746,1.296,4.803,102.2673,5.086,6.206,24.56,0,110.2,13.34,5.86,107.9
"2009-03-29 00:14:30",752047,3.683,154,7.219,1.188,5.795,102.2673,5.086,6.39,24.66,0,110.2,13.34,5.86,116.0
"2009-03-29 00:15:00",752048,3.443,155.6,5.501,1.297,4.457,102.2679,5.087,6.225,24.46,0,110.2,13.34,5.86,117.6
"2009-03-29 00:15:30",752049,3.002,158.8,7.339,1.253,3.635,102.2704,5.094,6.322,24.94,0,110.2,13.34,5.86,120.8
"2009-03-29 00:16:00",752050,2.851,157.9,4.515,0.923,2.477,102.2693,5.091,6.218,25.2,0,110.2,13.34,5.86,119.9
"2009-03-29 00:16:30",752051,4.297,167.4,5.678,1.159,5.854,102.2704,5.094,6.405,25.69,0,110.2,13.34,5.86,129.4
"2009-03-29 00:17:00",752052,2.989,161.7,5.203,0.95,3.137,102.2682,5.088,6.325,26.23,0,110.2,13.34,5.86,123.7
"2009-03-29 00:17:30",752053,4.215,167.7,5.738,1.25,5.236,102.2673,5.086,6.299,27.05,0,110.2,13.34,5.86,129.7
"2009-03-29 00:18:00",752054,4.395,163.7,6.219,1.137,5.377,102.2673,5.086,6.331,26.98,0,110.1,13.34,5.86,125.7
"2009-03-29 00:18:30",752055,3.586,155.3,6.697,1.267,4.27,102.2673,5.086,6.321,26.31,0,110.1,13.34,5.86,117.3
"2009-03-29 00:19:00",752056,3.595,149.9,5.983,1.279,3.978,102.2671,5.085,6.318,25.75,0,110.1,13.34,5.86,111.9
"2009-03-29 00:19:30",752057,2.945,142.4,4.626,0.992,2.859,102.2524,5.048,6.227,25.38,0,110.1,13.34,5.82,104.4
"2009-03-29 00:20:00",752058,3.646,145.1,6.039,1.227,4.094,102.2335,4.999,6.232,25.29,0,110.1,13.34,5.77,107.1
"2009-03-29 00:20:30",752059,3.713,142,7.097,1.29,4.215,102.2335,4.999,6.237,25.17,0,110.1,13.34,5.77,104.0
"2009-03-29 00:21:00",752060,3.657,140.2,6.196,1.231,4.658,102.214,4.95,6.269,24.8,0,110.1,13.34,5.72,102.2
"2009-03-29 00:21:30",752061,4.294,141.7,6.444,1.216,5.406,102.1997,4.913,6.252,24.56,0,110.1,13.34,5.68,103.7
"2009-03-29 00:22:00",752062,2.732,134,1.185,0.1,2.427,102.1974,4.907,6.124,24.34,0,110.1,13.38,5.68,96.0
"2009-03-29 00:22:30",752063,4.393,143.2,7.394,1.297,5.186,102.1768,4.855,6.097,24.36,0,110.1,13.34,5.62,105.2
"2009-03-29 00:23:00",752064,4.576,145,6.305,1.25,5.417,102.1675,4.831,6.228,24.73,0,110.1,13.34,5.60,107.0
"2009-03-29 00:23:30",752065,4.773,146.7,6.227,1.206,5.677,102.1696,4.836,6.134,25.17,0,110.1,13.35,5.61,108.7
"2009-03-29 00:24:00",752066,3.758,142.1,5.059,1.095,3.616,102.1643,4.823,6.054,25.91,0,110.1,13.35,5.59,104.1
"2009-03-29 00:24:30",752067,5.004,149.7,5.565,1.087,6.033,102.1443,4.772,6.196,26.98,0,110.1,13.35,5.54,111.7
"2009-03-29 00:25:00",752068,4.173,147.7,7.265,1.32,4.575,102.1435,4.77,6.012,27.56,0,110.1,13.35,5.54,109.7
"2009-03-29 00:25:30",752069,3.027,141.5,3.38,0.788,2.39,102.1487,4.783,5.962,28.78,0,110.1,13.35,5.55,103.5
"2009-03-29 00:26:00",752070,4.562,151.7,5.487,1.167,6.122,102.1539,4.796,6.136,30.08,0,110.1,13.34,5.57,113.7
"2009-03-29 00:26:30",752071,4.148,148.3,6.705,1.262,5.341,102.1391,4.758,6.094,29.95,0,110.1,13.34,5.53,110.3
"2009-03-29 00:27:00",752072,3.529,143.6,5.777,1.165,4.344,102.1301,4.735,6.009,29.99,0,110.1,13.34,5.50,105.6
"2009-03-29 00:27:30",752073,4.718,146.9,6.168,1.137,5.651,102.1287,4.732,6.029,29.56,0,110.1,13.34,5.50,108.9
"2009-03-29 00:28:00",752074,3.948,143.7,6.393,1.173,4.289,102.1019,4.664,5.988,29.07,0,110.1,13.34,5.43,105.7
"2009-03-29 00:28:30",752075,2.86,138.4,1.296,0.134,2.304,102.0957,4.648,5.779,27.91,0,110.1,13.38,5.42,100.4
"2009-03-29 00:29:00",752076,4.11,144,6.168,1.252,5.595,102.0687,4.579,5.965,26.98,0,110.1,13.34,5.35,106.0
"2009-03-29 00:29:30",752077,4.397,146.2,5.691,1.144,6.252,102.0588,4.553,5.951,26.08,0,110.1,13.35,5.32,108.2
"2009-03-29 00:30:00",752078,2.729,136.8,4.885,0.886,3.801,102.0314,4.483,5.74,25.36,0,110.1,13.34,5.25,98.8
"2009-03-29 00:30:30",752079,3.963,142.1,6.339,1.177,5.813,102.0153,4.442,5.771,25.16,0,110.1,13.35,5.21,104.1
"2009-03-29 00:31:00",752080,3.639,141.3,6.825,1.247,5.082,101.9973,4.396,5.841,25.2,0,110.1,13.35,5.16,103.3
"2009-03-29 00:31:30",752081,2.305,138.1,6.606,1.13,3.816,101.9922,4.383,5.633,25.04,0,110.1,13.35,5.15,100.1
"2009-03-29 00:32:00",752082,1.597,132.6,1.791,0.058,2.207,101.9646,4.313,5.522,25.02,0,110.1,13.39,5.08,94.6
"2009-03-29 00:32:30",752083,2.993,137.2,6.323,1.228,5.207,101.9634,4.31,5.659,25.25,0,110.1,13.36,5.08,99.2
"2009-03-29 00:33:00",752084,2.942,131.2,7.987,1.291,5.491,101.9561,4.291,5.725,25.44,0,110.1,13.36,5.06,93.2
"2009-03-29 00:33:30",752085,2.945,124.9,8.05,1.247,5.235,101.9411,4.253,5.495,25.33,0,110.1,13.36,5.02,86.9
"2009-03-29 00:34:00",752086,1.726,113.3,1.027,0.043,2.85,101.9296,4.223,5.488,25.49,0,110.1,13.4,4.99,75.3
"2009-03-29 00:34:30",752087,3.558,118.5,6.177,1.189,6.384,101.9296,4.223,5.648,25.75,0,110,13.36,4.99,80.5
"2009-03-29 00:35:00",752088,2.622,111.4,6.658,1.25,4.143,101.9251,4.212,5.507,25.79,0,110,13.36,4.98,73.4
"2009-03-29 00:35:30",752089,1.808,105.1,4.036,0.766,2.623,101.9129,4.181,5.342,25.9,0,110,13.36,4.95,67.1
"2009-03-29 00:36:00",752090,1.87,107,4.811,0.986,2.864,101.8966,4.139,5.449,26.29,0,110,13.36,4.91,69.0
"2009-03-29 00:36:30",752091,3.255,117.4,4.963,1.155,6.454,101.8957,4.137,5.46,26.47,0,110,13.36,4.90,79.4
"2009-03-29 00:37:00",752092,1.733,113.8,4.23,1.069,3.34,101.8966,4.139,5.358,26.54,0,110,13.36,4.91,75.8
"2009-03-29 00:37:30",752093,1.542,125.5,4.533,0.966,3.553,101.8957,4.137,5.413,26.65,0,110,13.36,4.90,87.5
"2009-03-29 00:38:00",752094,1.135,129.9,0.433,0.035,2.325,101.8983,4.144,5.28,26.35,0,110,13.4,4.91,91.9
"2009-03-29 00:38:30",752095,2.529,139.8,6.741,1.332,4.566,101.8992,4.146,5.434,26.06,0,110,13.37,4.91,101.8
"2009-03-29 00:39:00",752096,3.029,140.9,6.712,1.246,5.159,101.9,4.148,5.466,25.96,0,110,13.37,4.91,102.9
"2009-03-29 00:39:30",752097,1.632,134.4,2.491,0.097,2.222,101.9026,4.155,5.323,25.79,0,110,13.4,4.92,96.4
"2009-03-29 00:40:00",752098,2.838,140.6,7.593,1.2,4.104,101.9049,4.16,5.337,25.7,0,110,13.36,4.93,102.6
"2009-03-29 00:40:30",752099,3.848,144.5,7.576,1.136,5.435,101.9081,4.169,5.455,25.72,0,110,13.37,4.94,106.5
"2009-03-29 00:41:00",752100,2.05,136.5,3.276,0.072,2.756,101.9087,4.17,5.405,25.6,0,110,13.37,4.94,98.5
"2009-03-29 00:41:30",752101,2.44,134.5,5.615,0.932,3.2,101.9136,4.182,5.297,25.4,0,110,13.37,4.95,96.5
"2009-03-29 00:42:00",752102,3.834,136.4,6.951,1.222,5.295,101.9167,4.191,5.397,25.51,0,110,13.37,4.96,98.4
"2009-03-29 00:42:30",752103,3.916,139.8,5.86,1.169,6.2,101.921,4.202,5.511,25.56,0,110,13.36,4.97,101.8
"2009-03-29 00:43:00",752104,3.612,132.3,6.832,1.243,5.083,101.9228,4.206,5.416,25.44,0,110,13.36,4.97,94.3
"2009-03-29 00:43:30",752105,2.843,127,6.413,1.238,4.213,101.9245,4.21,5.417,25.52,0,110,13.36,4.98,89.0
"2009-03-29 00:44:00",752106,3.313,124,6.453,1.266,4.174,101.9265,4.216,5.333,25.44,0,110,13.36,4.98,86.0
"2009-03-29 00:44:30",752107,3.721,127,6.752,1.335,5.013,101.9285,4.221,5.443,25.51,0,110,13.36,4.99,89.0
"2009-03-29 00:45:00",752108,2.447,117.8,2.319,0.283,2.833,101.9299,4.224,5.258,25.27,0,110,13.37,4.99,79.8
"2009-03-29 00:45:30",752109,3.917,124.7,6.492,1.299,5.417,101.9302,4.225,5.48,25.48,0,110,13.36,4.99,86.7
"2009-03-29 00:46:00",752110,4.915,131,3.905,0.902,7.062,101.9268,4.216,5.501,25.34,0,110,13.36,4.98,93.0
"2009-03-29 00:46:30",752111,3.961,127.1,7.439,1.261,4.928,101.9158,4.188,5.408,25.11,0,110,13.36,4.95,89.1
"2009-03-29 00:47:00",752112,3.842,129.9,6.576,1.25,4.392,101.9088,4.17,5.384,25,0,110,13.36,4.94,91.9
"2009-03-29 00:47:30",752113,3.896,134.2,5.793,1.262,5.073,101.9026,4.154,5.312,24.88,0,110,13.37,4.92,96.2
"2009-03-29 00:48:00",752114,2.736,133.7,4.956,0.77,3.755,101.8969,4.14,5.392,24.95,0,110,13.37,4.91,95.7
"2009-03-29 00:48:30",752115,3.388,139.1,7.057,1.245,5.023,101.8964,4.139,5.416,24.99,0,110,13.38,4.91,101.1
"2009-03-29 00:49:00",752116,3.769,140.4,6.343,1.236,5.577,101.8964,4.139,5.41,24.96,0,110,13.38,4.91,102.4
"2009-03-29 00:49:30",752117,4.117,142.7,6.322,1.121,5.794,101.8961,4.138,5.364,24.92,0,110,13.38,4.90,104.7
"2009-03-29 00:50:00",752118,3.055,140.7,7.106,1.243,4.607,101.8893,4.121,5.303,24.9,0,110,13.37,4.89,102.7
"2009-03-29 00:50:30",752119,2.748,141.1,6.296,1.089,3.835,101.8724,4.077,5.348,24.97,0,110,13.38,4.84,103.1
"2009-03-29 00:51:00",752120,2.9,143.1,5.401,1.166,4.037,101.8625,4.052,5.202,24.85,0,110,13.38,4.82,105.1
"2009-03-29 00:51:30",752121,3.406,146.1,6.423,1.274,5.983,101.8625,4.052,5.358,25.01,0,110,13.38,4.82,108.1
"2009-03-29 00:52:00",752122,3.441,145,6.813,1.231,5.362,101.8625,4.052,5.319,25.13,0,110,13.38,4.82,107.0
"2009-03-29 00:52:30",752123,3.745,148,5.881,1.124,5.808,101.8625,4.052,5.313,25.24,0,110,13.38,4.82,110.0
"2009-03-29 00:53:00",752124,3.055,147.2,7.662,1.256,5.186,101.8619,4.051,5.349,25.41,0,110,13.38,4.82,109.2
"2009-03-29 00:53:30",752125,1.842,140.9,1.617,0.212,2.361,101.8566,4.037,5.211,25.4,0,110,13.38,4.80,102.9
"2009-03-29 00:54:00",752126,2.79,144.5,6.237,1.246,4.219,101.8504,4.021,5.134,25.42,0,110,13.38,4.79,106.5
"2009-03-29 00:54:30",752127,1.963,137.5,2.739,0.609,3.004,101.834,3.979,5.215,25.62,0,110,13.38,4.75,99.5
"2009-03-29 00:55:00",752128,3.448,144.6,6.41,1.171,6.223,101.8298,3.969,5.211,25.65,0,110,13.38,4.73,106.6
"2009-03-29 00:55:30",752129,3.189,142.6,6.115,1.219,5.83,101.8304,3.97,5.263,25.77,0,110,13.38,4.74,104.6
"2009-03-29 00:56:00",752130,3.569,143.6,6.452,1.02,6.597,101.8307,3.971,5.299,25.89,0,110,13.38,4.74,105.6
"2009-03-29 00:56:30",752131,2.441,140.7,5.688,1.173,4.27,101.833,3.977,5.156,25.8,0,110,13.38,4.74,102.7
"2009-03-29 00:57:00",752132,1.943,140.2,5.273,0.89,3.66,101.8378,3.989,5.203,25.85,0,110,13.38,4.76,102.2
"2009-03-29 00:57:30",752133,1.824,138.9,4.64,0.79,3.077,101.8407,3.997,5.106,25.7,0,109.9,13.39,4.76,100.9
"2009-03-29 00:58:00",752134,2.64,143.5,5.8,1.211,3.973,101.8479,4.015,5.064,25.57,0,110,13.39,4.78,105.5
"2009-03-29 00:58:30",752135,2.983,146.7,6.5,1.255,5.511,101.8491,4.018,5.296,25.63,0,110,13.39,4.78,108.7
"2009-03-29 00:59:00",752136,3.125,147.3,6.798,1.28,5.584,101.8429,4.002,5.22,25.36,0,110,13.38,4.77,109.3
"2009-03-29 00:59:30",752137,4.147,152.9,3.301,0.502,7.539,101.836,3.984,5.303,25.28,0,110,13.38,4.75,114.9
"2009-03-29 01:00:00",752138,2.636,142.3,6.418,1.198,4.174,101.8287,3.966,5.144,25.13,0,110,13.38,4.73,104.3
"2009-03-29 01:00:30",752139,1.765,137.2,0.336,0.021,2.454,101.829,3.967,5.07,25.02,0,109.9,13.42,4.73,99.2
"2009-03-29 01:01:00",752140,1.845,134.8,0.589,0.05,2.373,101.8293,3.967,5.029,24.91,0,109.9,13.42,4.73,96.8
"2009-03-29 01:01:30",752141,3.154,141.4,6.684,1.279,5.089,101.8247,3.956,5.129,25.01,0,110,13.38,4.72,103.4
"2009-03-29 01:02:00",752142,3.124,143.6,7.882,1.27,5.488,101.8041,3.903,5.17,25.08,0,110,13.39,4.67,105.6
"2009-03-29 01:02:30",752143,3.474,148.1,6.792,1.248,5.921,101.7954,3.881,5.191,25.2,0,110,13.39,4.65,110.1
"2009-03-29 01:03:00",752144,3.965,148.7,5.946,1.147,6.715,101.7943,3.878,5.19,25.29,0,109.9,13.39,4.64,110.7
"2009-03-29 01:03:30",752145,3.366,143.4,6.096,1.189,4.643,101.7694,3.814,5.035,25.14,0,109.9,13.39,4.58,105.4
"2009-03-29 01:04:00",752146,2.425,141.8,2.323,0.064,2.575,101.7615,3.794,4.899,25.07,0,109.9,13.43,4.56,103.8
"2009-03-29 01:04:30",752147,2.576,144.6,1.499,0.053,2.794,101.7528,3.772,4.921,25.23,0,109.9,13.43,4.54,106.6
"2009-03-29 01:05:00",752148,3.782,150.6,6.622,1.278,6.335,101.7305,3.715,5.141,25.57,0,109.9,13.4,4.48,112.6
"2009-03-29 01:05:30",752149,4.288,151.8,6.188,1.131,7.214,101.7231,3.696,5.077,25.53,0,109.9,13.4,4.46,113.8
"2009-03-29 01:06:00",752150,3.999,148.9,6.328,1.148,6.725,101.6949,3.624,5.069,25.59,0,109.9,13.4,4.39,110.9
"2009-03-29 01:06:30",752151,4.18,147.3,6.216,1.133,6.737,101.6938,3.621,5.002,25.63,0,109.9,13.4,4.39,109.3
"2009-03-29 01:07:00",752152,2.919,139.4,6.014,1.143,3.957,101.6655,3.549,4.776,25.45,0,109.9,13.4,4.31,101.4
"2009-03-29 01:07:30",752153,2.259,136.5,1.462,0.05,2.692,101.6588,3.532,4.706,25.45,0,109.9,13.44,4.30,98.5
"2009-03-29 01:08:00",752154,3.303,142.7,7.217,1.266,5.499,101.6343,3.469,4.85,25.65,0,109.9,13.41,4.23,104.7
"2009-03-29 01:08:30",752155,3.699,146.5,6.615,1.232,6.231,101.6381,3.479,4.85,25.76,0,109.9,13.41,4.24,108.5
"2009-03-29 01:09:00",752156,4.496,152.7,5.501,1.003,7.366,101.6212,3.436,4.929,25.95,0,109.9,13.41,4.20,114.7
"2009-03-29 01:09:30",752157,4.329,152.9,6.203,1.17,6.189,101.6191,3.431,4.754,25.86,0,109.9,13.41,4.19,114.9
"2009-03-29 01:10:00",752158,3.735,149.8,6.381,1.207,4.425,101.6084,3.404,4.637,25.84,0,109.9,13.41,4.17,111.8
"2009-03-29 01:10:30",752159,2.781,144.9,1.035,0.075,2.731,101.5927,3.363,4.502,25.82,0,109.9,13.45,4.13,106.9
"2009-03-29 01:11:00",752160,3.853,149,5.988,1.19,5.54,101.5754,3.319,4.639,26.05,0,109.9,13.41,4.08,111.0
"2009-03-29 01:11:30",752161,4.189,147.9,5.24,1.166,6.866,101.5588,3.277,4.682,26.15,0,109.9,13.42,4.04,109.9
"2009-03-29 01:12:00",752162,3.851,142.3,6.644,1.214,6.342,101.5447,3.241,4.639,26.11,0,109.9,13.42,4.00,104.3
"2009-03-29 01:12:30",752163,4.162,144,5.899,1.129,6.965,101.5249,3.19,4.624,26.09,0,109.9,13.42,3.95,106.0
"2009-03-29 01:13:00",752164,3.406,138.4,6.905,1.287,5.153,101.5142,3.163,4.451,26.07,0,109.9,13.42,3.93,100.4
"2009-03-29 01:13:30",752165,2.092,133.6,1.16,0.066,2.787,101.491,3.104,4.3,26.35,0,109.9,13.45,3.87,95.6
"2009-03-29 01:14:00",752166,2.682,140.6,7.036,1.139,4.868,101.4794,3.074,4.389,26.81,0,109.9,13.42,3.84,102.6
"2009-03-29 01:14:30",752167,3.634,148.3,5.59,1.155,6.977,101.4571,3.017,4.444,27.15,0,109.9,13.42,3.78,110.3
"2009-03-29 01:15:00",752168,2.81,145.3,6.379,1.258,5.503,101.4546,3.011,4.327,27.19,0,109.9,13.42,3.77,107.3
"2009-03-29 01:15:30",752169,3.344,149.7,6.367,1.243,7.025,101.4312,2.951,4.397,27.4,0,109.9,13.42,3.71,111.7
"2009-03-29 01:16:00",752170,3.421,150.5,6.546,1.236,5.784,101.4244,2.934,4.336,27.46,0,109.8,13.42,3.70,112.5
"2009-03-29 01:16:30",752171,1.889,144.7,1.638,0.041,2.801,101.4205,2.924,4.102,27.24,0,109.9,13.45,3.69,106.7
"2009-03-29 01:17:00",752172,2.082,145.6,0.271,0.039,2.649,101.4016,2.876,4.069,27.08,0,109.8,13.46,3.64,107.6
"2009-03-29 01:17:30",752173,2.803,149.4,6.147,1.111,4.178,101.4085,2.893,4.164,27.02,0,109.8,13.42,3.66,111.4
"2009-03-29 01:18:00",752174,3.924,158.2,5.98,1.187,6.735,101.4152,2.91,4.241,27.02,0,109.8,13.42,3.67,120.2
"2009-03-29 01:18:30",752175,4.117,158.3,7,1.294,6.423,101.3935,2.855,4.238,27,0,109.8,13.43,3.62,120.3
"2009-03-29 01:19:00",752176,4.812,165.1,6.3,1.205,6.41,101.3898,2.846,4.223,27.09,0,109.8,13.43,3.61,127.1
"2009-03-29 01:19:30",752177,4.873,166.8,6.159,1.249,5.35,101.3881,2.841,4.073,27.27,0,109.8,13.43,3.60,128.8
"2009-03-29 01:20:00",752178,3.986,163.9,3.929,0.812,3.105,101.3593,2.768,3.996,28.81,0,109.8,13.44,3.53,125.9
"2009-03-29 01:20:30",752179,5.072,166.8,6.174,1.257,4.775,101.3559,2.759,3.976,31.58,0,109.8,13.44,3.52,128.8
"2009-03-29 01:21:00",752180,5.518,170.3,5.454,1.16,6.633,101.3345,2.704,4.112,33.36,0,109.8,13.44,3.47,132.3
"2009-03-29 01:21:30",752181,5.711,169.9,5.44,1.033,7.035,101.322,2.673,4.16,34.88,0,109.8,13.44,3.43,131.9
"2009-03-29 01:22:00",752182,6.17,169.3,4.543,0.774,7.283,101.3008,2.618,4.068,36.35,0,109.8,13.44,3.38,131.3
"2009-03-29 01:22:30",752183,5.135,163.4,6.611,1.241,5.052,101.2881,2.586,3.959,36.77,0,109.8,13.44,3.35,125.4
"2009-03-29 01:23:00",752184,4.854,162.4,6.952,1.104,4.215,101.265,2.527,3.857,36.65,0,109.8,13.44,3.29,124.4
"2009-03-29 01:23:30",752185,3.995,160.1,4.285,0.963,3.74,101.254,2.499,3.838,34.58,0,109.8,13.44,3.26,122.1
"2009-03-29 01:24:00",752186,4.131,161.3,6.5,1.287,5.74,101.2283,2.433,3.82,30.53,0,109.8,13.45,3.19,123.3
"2009-03-29 01:24:30",752187,4.077,163.1,6.35,1.195,6.873,101.2295,2.436,3.85,29.21,0,109.8,13.45,3.20,125.1
"2009-03-29 01:25:00",752188,3.459,158.5,5.63,1.19,7.052,101.2163,2.403,3.836,29.11,0,109.8,13.45,3.16,120.5
"2009-03-29 01:25:30",752189,1.999,152.6,5.166,1.058,4.188,101.2073,2.38,3.65,29.41,0,109.8,13.45,3.14,114.6
"2009-03-29 01:26:00",752190,1.399,147.6,1.198,0.031,2.634,101.2122,2.392,3.51,29.39,0,109.8,13.49,3.15,109.6
"2009-03-29 01:26:30",752191,2.052,157.9,6.537,1.151,4.191,101.2006,2.363,3.487,29.5,0,109.8,13.45,3.12,119.9
"2009-03-29 01:27:00",752192,2.246,178.1,10.77,1.249,5.734,101.1845,2.322,3.623,30.34,0,109.8,13.45,3.08,140.1
"2009-03-29 01:27:30",752193,1.037,198.6,6.851,0.124,4.093,101.1866,2.327,3.503,31.19,0,109.8,13.49,3.09,160.6
"2009-03-29 01:28:00",752194,2.528,212.7,10.74,1.198,7.427,101.1868,2.328,3.641,32.08,0,109.8,13.46,3.09,174.7
"2009-03-29 01:28:30",752195,2.862,201.6,6.912,1.23,7.305,101.1868,2.328,3.594,32.67,0,109.8,13.46,3.09,163.6
"2009-03-29 01:29:00",752196,2.886,196,7.141,1.273,7.586,101.1868,2.328,3.624,33.21,0,109.8,13.46,3.09,158.0
"2009-03-29 01:29:30",752197,1.66,176.8,12.22,0.606,3.549,101.1846,2.322,3.384,33.08,0,109.7,13.47,3.08,138.8
"2009-03-29 01:30:00",752198,2.615,169.6,5.162,1.196,4.434,101.1784,2.306,3.389,32.92,0,109.7,13.46,3.07,131.6
"2009-03-29 01:30:30",752199,2.531,160.5,6.791,1.082,4.506,101.1673,2.278,3.513,32.72,0,109.7,13.47,3.04,122.5
"2009-03-29 01:31:00",752200,2.56,158.1,4.914,0.715,3.442,101.1558,2.248,3.356,31.14,0,109.8,13.47,3.01,120.1
"2009-03-29 01:31:30",752201,4.715,170.6,6.448,1.062,6.548,101.1529,2.241,3.596,29.55,0,109.8,13.47,3.00,132.6
"2009-03-29 01:32:00",752202,5.249,175.7,5.077,1.129,6.834,101.1532,2.242,3.613,29.53,0,109.8,13.47,3.00,137.7
"2009-03-29 01:32:30",752203,4.382,170,5.77,1.248,4.953,101.1529,2.241,3.446,29.79,0,109.8,13.47,3.00,132.0
"2009-03-29 01:33:00",752204,4.315,171.5,6.32,1.162,4.632,101.1529,2.241,3.606,31.4,0,109.7,13.46,3.00,133.5
"2009-03-29 01:33:30",752205,4.015,170.4,5.401,1.081,3.715,101.1532,2.242,3.382,31.88,0,109.7,13.46,3.00,132.4
"2009-03-29 01:34:00",752206,4.38,171.7,6.365,1.244,4.817,101.1549,2.246,3.409,31.78,0,109.7,13.47,3.01,133.7
"2009-03-29 01:34:30",752207,5.092,175.7,5.532,1.132,6.658,101.1601,2.259,3.554,31.46,0,109.7,13.47,3.02,137.7
"2009-03-29 01:35:00",752208,5.01,171.3,5.808,1.142,7.01,101.1638,2.269,3.565,30.56,0,109.7,13.47,3.03,133.3
"2009-03-29 01:35:30",752209,4.784,165.7,7.509,1.221,6.058,101.156,2.249,3.539,29.54,0,109.7,13.47,3.01,127.7
"2009-03-29 01:36:00",752210,4.616,161.9,6.969,1.244,6.447,101.1453,2.222,3.528,29.15,0,109.7,13.47,2.98,123.9
"2009-03-29 01:36:30",752211,4.209,155.9,6.433,1.173,4.353,101.1513,2.237,3.345,28.64,0,109.7,13.47,3.00,117.9
"2009-03-29 01:37:00",752212,4.725,157,5.989,1.214,6.137,101.153,2.241,3.541,28.66,0,109.7,13.47,3.00,119.0
"2009-03-29 01:37:30",752213,4.52,151.7,6.007,1.192,5.218,101.1533,2.242,3.406,28.45,0,109.7,13.47,3.00,113.7
"2009-03-29 01:38:00",752214,5.236,154.5,5.732,1.116,7.079,101.1533,2.242,3.515,28.5,0,109.7,13.48,3.00,116.5
"2009-03-29 01:38:30",752215,5.442,153.4,5.255,1.095,7.101,101.1533,2.242,3.506,28.44,0,109.7,13.48,3.00,115.4
"2009-03-29 01:39:00",752216,5.305,149.4,5.613,1.068,6.919,101.153,2.241,3.507,28.4,0,109.7,13.48,3.00,111.4
"2009-03-29 01:39:30",752217,4.046,140.7,5.424,0.996,4.477,101.1533,2.242,3.351,28.27,0,109.7,13.48,3.00,102.7
"2009-03-29 01:40:00",752218,5.348,147.5,5.803,1.167,6.969,101.1525,2.24,3.458,28.35,0,109.7,13.48,3.00,109.5
"2009-03-29 01:40:30",752219,4.246,140,4.429,1.089,4.898,101.1528,2.241,3.368,28.31,0,109.7,13.48,3.00,102.0
"2009-03-29 01:41:00",752220,4.582,142.6,5.373,1.118,7.712,101.1525,2.24,3.491,29.89,0,109.7,13.48,3.00,104.6
"2009-03-29 01:41:30",752221,4.101,159.4,10.95,1.173,8.17,101.153,2.241,3.451,30.4,0,109.7,13.48,3.00,121.4
"2009-03-29 01:42:00",752222,3.311,144,7.933,1.23,5.48,101.1533,2.242,3.374,31.32,0,109.7,13.48,3.00,106.0
"2009-03-29 01:42:30",752223,3.471,142.1,7.142,1.125,5.555,101.1533,2.242,3.414,31.24,0,109.7,13.48,3.00,104.1
"2009-03-29 01:43:00",752224,3.488,137.1,5.292,1.185,4.579,101.1533,2.242,3.267,31.02,0,109.7,13.48,3.00,99.1
"2009-03-29 01:43:30",752225,3.359,139.3,6.13,1.25,5.384,101.1533,2.242,3.423,30.92,0,109.7,13.49,3.00,101.3
"2009-03-29 01:44:00",752226,4.78,145.1,7.213,1.073,7.368,101.1533,2.242,3.429,31.01,0,109.7,13.49,3.00,107.1
"2009-03-29 01:44:30",752227,4.952,147.7,5.977,1.047,7.166,101.1533,2.242,3.465,30.28,0,109.7,13.49,3.00,109.7
"2009-03-29 01:45:00",752228,5.342,151.1,5.004,0.707,7.488,101.1539,2.243,3.485,29.1,0,109.7,13.49,3.00,113.1
"2009-03-29 01:45:30",752229,3.599,149.2,5.436,1.035,4.937,101.1632,2.267,3.427,29.44,0,109.7,13.49,3.03,111.2
"2009-03-29 01:46:00",752230,5.055,155,6.181,1.254,5.576,101.1802,2.311,3.373,29.31,0,109.7,13.49,3.07,117.0
"2009-03-29 01:46:30",752231,4.564,150.9,4.284,1.128,5.536,101.1865,2.327,3.463,28.71,0,109.7,13.49,3.09,112.9
"2009-03-29 01:47:00",752232,4.457,148.8,5.907,1.201,7.059,101.1891,2.333,3.471,29.58,0,109.7,13.49,3.09,110.8
"2009-03-29 01:47:30",752233,4.459,138.4,8.24,1.243,7.659,101.197,2.353,3.583,30.16,0,109.7,13.49,3.11,100.4
"2009-03-29 01:48:00",752234,3.677,149,7.742,1.377,7.702,101.2018,2.366,3.514,30.92,0,109.7,13.49,3.13,111.0
"2009-03-29 01:48:30",752235,2.171,140.3,14.79,1.136,6.499,101.2061,2.377,3.489,32.34,0,109.7,13.49,3.14,102.3
"2009-03-29 01:49:00",752236,1.421,132.3,9.41,0.67,3.611,101.2096,2.386,3.35,32.69,0,109.7,13.52,3.15,94.3